Find Kuiper-00144

NORAD ID: 67133 Int'l Des: 2025-301 Owner: KUIP Country: US Constellation: kuiper operational
LEOCIRCULAR

Live Position

Loading 3D Globe...

About Kuiper-00144

Description loading...

Upcoming Passes

Passes for default location (London). Set your location on the main map for personalized predictions.

Altitude History

Loading altitude history...

Two-Line Element Set

1 67133U 25301A 26107.26851562 .00002242 00000-0 29315-3 0 9995
2 67133 51.8990 244.3782 0003835 152.9667 207.1498 14.84113340 19593
Epoch: Apr 17, 2026 • Age: 8 hours

Current Status

Altitude 632.3 km
Velocity 7.54 km/s
Sub-Earth Point -46.74°S, 62.94°E
Launch Date Dec 16, 2025
Age 0.3 years
Type internet

Technical Details

Classification Payload
Mass 490.00 kg
Dry Mass 490.00 kg
Total Mass 490.00 kg
Length 1.80 m
Diameter 0.70 m
Span 5.00 m
Shape Box + 2 pan
Manufacturer KUIP
Bus Type Kuiper
Phase Status In Orbit
Owner/State KUIP/US

Most Searched